TimeEST,TemperatureF,Dew PointF,Humidity,Sea Level PressureIn,VisibilityMPH,Wind Direction,Wind SpeedMPH,Gust SpeedMPH,PrecipitationIn,Events,Conditions,WindDirDegrees,DateUTC
12:54 AM,41.0,37.0,86,29.87,10.0,WNW,8.1,-,0.04,Rain,Light Rain,300,2012-11-08 05:54:00
1:54 AM,42.1,36.0,79,29.88,7.0,NW,5.8,-,0.02,Rain,Light Rain,320,2012-11-08 06:54:00
2:54 AM,42.1,34.0,73,29.87,10.0,Variable,4.6,-,0.02,,Overcast,0,2012-11-08 07:54:00
3:54 AM,44.1,30.9,60,29.87,10.0,NW,8.1,-,N/A,,Overcast,310,2012-11-08 08:54:00
4:54 AM,44.1,27.0,51,29.88,10.0,WNW,6.9,-,N/A,,Overcast,300,2012-11-08 09:54:00
5:54 AM,44.1,24.1,45,29.88,10.0,WNW,9.2,-,N/A,,Overcast,300,2012-11-08 10:54:00
6:54 AM,44.1,24.1,45,29.90,10.0,WNW,9.2,-,N/A,,Overcast,290,2012-11-08 11:54:00
7:54 AM,44.1,23.0,43,29.92,10.0,WNW,9.2,-,N/A,,Overcast,300,2012-11-08 12:54:00
8:54 AM,45.0,21.9,40,29.94,10.0,NW,9.2,-,N/A,,Clear,310,2012-11-08 13:54:00
9:54 AM,46.9,21.9,37,29.94,10.0,NW,11.5,-,N/A,,Clear,310,2012-11-08 14:54:00
10:54 AM,48.9,21.0,33,29.94,10.0,NW,15.0,-,N/A,,Clear,320,2012-11-08 15:54:00
11:54 AM,50.0,21.0,32,29.92,10.0,NW,12.7,20.7,N/A,,Clear,310,2012-11-08 16:54:00
12:54 PM,52.0,19.9,28,29.91,10.0,NW,13.8,28.8,N/A,,Clear,310,2012-11-08 17:54:00
1:54 PM,54.0,19.0,25,29.89,10.0,NW,16.1,26.5,N/A,,Clear,320,2012-11-08 18:54:00
2:54 PM,55.0,19.0,24,29.90,10.0,NNW,12.7,-,N/A,,Clear,330,2012-11-08 19:54:00
3:54 PM,55.0,19.0,24,29.91,10.0,NW,11.5,26.5,N/A,,Clear,320,2012-11-08 20:54:00
4:54 PM,53.1,21.0,29,29.93,10.0,NW,12.7,20.7,N/A,,Clear,310,2012-11-08 21:54:00
5:54 PM,52.0,19.0,27,29.96,10.0,WNW,11.5,-,N/A,,Clear,300,2012-11-08 22:54:00
6:54 PM,51.1,21.0,31,29.98,10.0,WNW,8.1,-,N/A,,Clear,290,2012-11-08 23:54:00
7:54 PM,50.0,23.0,35,29.99,10.0,NW,10.4,-,N/A,,Clear,310,2012-11-09 00:54:00
8:54 PM,50.0,23.0,35,30.01,10.0,NW,10.4,-,N/A,,Clear,310,2012-11-09 01:54:00
9:54 PM,50.0,27.0,41,30.02,10.0,NW,9.2,-,N/A,,Clear,310,2012-11-09 02:54:00
10:54 PM,48.9,27.0,43,30.03,10.0,NW,6.9,-,N/A,,Clear,310,2012-11-09 03:54:00
11:54 PM,48.0,28.9,48,30.04,10.0,NW,10.4,-,N/A,,Clear,310,2012-11-09 04:54:00